This is the latest recevied weather packets stored in our database for station/object HC6AC-18. If no packets are shown the sender has not sent any weather packets the latest 10 day(s).
| Time | Temp. | Humidity | Pressure | Rain* | Wind** | Luminosity | Snow |
|---|---|---|---|---|---|---|---|
| 1788146594 | 58° F | 92% | 765.8 mmHg | 0 in | - | - | - |
| 1788145994 | 61° F | 92% | 765.8 mmHg | 0 in | - | - | - |
| 1788145393 | 65° F | 92% | 765.8 mmHg | 0 in | - | - | - |
| 1788144792 | 56° F | 91% | 765.8 mmHg | 0 in | - | - | - |
| 1788144191 | 59° F | 91% | 765.8 mmHg | 0 in | - | - | - |
| 1788143589 | 63° F | 91% | 765.8 mmHg | 0 in | - | - | - |
| 1788142988 | 54° F | 92% | 765.8 mmHg | 0 in | - | - | - |
| 1788142388 | 58° F | 92% | 765.8 mmHg | 0 in | - | - | - |
| 1788141787 | 61° F | 92% | 765.8 mmHg | 0 in | - | - | - |
| 1788141186 | 65° F | 92% | 765.8 mmHg | 0 in | - | - | - |
| 1788140585 | 62° F | 92% | 765.8 mmHg | 0 in | - | - | - |
| 1788139984 | 56° F | 92% | 765.8 mmHg | 0 in | - | - | - |
| 1788139383 | 59° F | 92% | 765.1 mmHg | 0 in | - | - | - |
| 1788138783 | 54° F | 95% | 765.1 mmHg | 0 in | - | - | - |
| 1788138182 | 58° F | 95% | 765.1 mmHg | 0 in | - | - | - |
| 1788137581 | 61° F | 95% | 765.1 mmHg | 0 in | - | - | - |
| 1788136980 | 65° F | 95% | 765.1 mmHg | 0 in | - | - | - |
| 1788136380 | 62° F | 95% | 765.1 mmHg | 0 in | - | - | - |
| 1788135779 | 56° F | 95% | 763.6 mmHg | 0 in | - | - | - |
| 1788135178 | 59° F | 95% | 764.3 mmHg | 0 in | - | - | - |
| 1788134577 | 55° F | 87% | 764.3 mmHg | 0 in | - | - | - |
| 1788133976 | 59° F | 87% | 764.3 mmHg | 0 in | - | - | - |
| 1788133376 | 62° F | 87% | 764.3 mmHg | 0 in | - | - | - |
| 1788132775 | 66° F | 87% | 764.3 mmHg | 0 in | - | - | - |
| 1788132174 | 58° F | 78% | 762.8 mmHg | 0 in | - | - | - |
* Rain latest hour (hover to see other rain measurements)
** Current wind speed in m/s (hover to see current wind gust speed)